Sauk Centre, MN

3:15 AM CDT on October 22, 2019 (GMT -0500)
Sauk Centre

Weather History for KD39 - August, 2019

Change the Weather History Date:

Sunday, August 4, 2019

  Actual Average (WUND) Record (WUND)
Temperature  
Mean Temperature 72 °F -  
Max Temperature 83 °F - - (-1)
Min Temperature 61 °F - - (-1)
Cooling Degree Days 7    
Growing Degree Days 22 (Base 50)    
Moisture  
Dew Point 66 °F    
Average Humidity 79    
Maximum Humidity 99    
Minimum Humidity 59    
Precipitation  
Precipitation 0.00 in - - ()
Sea Level Pressure  
Sea Level Pressure 30.02 in    
Wind  
Wind Speed 3 mph (South)    
Max Wind Speed 12 mph    
Max Gust Speed -    
Visibility 10 miles    
Events      
Averages and records for this station are not official NWS values.
T = Trace of Precipitation, MM = Missing Value Source: NWS Daily Summary

Daily Weather History Graph

Daily Weather History Graph

Search for Another Location

Airport or City:

Astronomy

Aug. 04, 2019 Rise Set
Actual Time 6:06 AM CDT 8:44 PM CDT
Civil Twilight 5:32 AM CDT 9:18 PM CDT
Nautical Twilight 4:49 AM CDT 10:00 PM CDT
Astronomical Twilight 4:00 AM CDT 10:49 PM CDT
Moon 10:24 AM CDT (8/4) 11:11 PM CDT (8/4)
Length of Visible Light 15h 45m
Length of Day
14h 38m
Waxing Crescent, 18% of the Moon is Illuminated
Aug 4
Waxing Crescent
Aug 7
First Quarter
Aug 15
Full
Aug 23
Last Quarter
Aug 30
New

Hourly Weather History & Observations

Time (CDT) Temp. Heat Index Dew Point Humidity Pressure Visibility Wind Dir Wind Speed Gust Speed Precip Events Conditions
12:16 AM 65.5 °F - 63.5 °F 93% 30.08 in 10.0 mi Calm Calm - N/A   Clear
12:35 AM 66.2 °F - 63.5 °F 91% 30.08 in 10.0 mi ESE 3.5 mph - N/A   Clear
12:56 AM 65.8 °F - 63.5 °F 92% 30.08 in 10.0 mi Calm Calm - N/A   Clear
1:15 AM 64.8 °F - 63.1 °F 94% 30.08 in 10.0 mi Calm Calm - N/A   Clear
1:16 AM 64.9 °F - 63.3 °F 94% 30.08 in 10.0 mi Calm Calm - N/A   Clear
1:35 AM 63.3 °F - 62.2 °F 96% 30.08 in 10.0 mi Calm Calm - N/A   Clear
1:40 AM 63.5 °F - 62.6 °F 97% 30.08 in 10.0 mi Calm Calm - N/A   Clear
1:58 AM 63.5 °F - 62.8 °F 97% 30.07 in 10.0 mi Calm Calm - N/A   Clear
2:16 AM 63.5 °F - 62.8 °F 97% 30.08 in 7.0 mi Calm Calm - N/A   Clear
2:35 AM 62.2 °F - 61.5 °F 97% 30.08 in 10.0 mi Calm Calm - N/A   Clear
2:55 AM 62.1 °F - 61.5 °F 98% 30.08 in 10.0 mi Calm Calm - N/A   Clear
2:56 AM 62.1 °F - 61.7 °F 99% 30.08 in 10.0 mi Calm Calm - N/A   Clear
3:15 AM 62.2 °F - 61.3 °F 97% 30.08 in 10.0 mi Calm Calm - N/A   Clear
3:20 AM 62.6 °F - 61.7 °F 97% 30.08 in 10.0 mi Calm Calm - N/A   Clear
3:38 AM 63.1 °F - 62.2 °F 97% 30.08 in 10.0 mi Calm Calm - N/A   Clear
3:55 AM 62.2 °F - 61.7 °F 98% 30.07 in 7.0 mi Calm Calm - N/A   Clear
4:16 AM 62.8 °F - 62.2 °F 98% 30.07 in 10.0 mi Calm Calm - N/A   Clear
4:36 AM 61.2 °F - 60.4 °F 97% 30.07 in 10.0 mi Calm Calm - N/A   Clear
4:55 AM 61.5 °F - 61.0 °F 98% 30.07 in 10.0 mi Calm Calm - N/A   Clear
4:56 AM 61.7 °F - 61.0 °F 97% 30.07 in 10.0 mi Calm Calm - N/A   Clear
5:15 AM 61.9 °F - 61.3 °F 98% 30.07 in 10.0 mi Calm Calm - N/A   Clear
5:19 AM 61.9 °F - 61.3 °F 98% 30.07 in 10.0 mi Calm Calm - N/A   Clear
5:39 AM 61.2 °F - 60.3 °F 97% 30.07 in 10.0 mi Calm Calm - N/A   Clear
5:56 AM 61.3 °F - 60.6 °F 97% 30.07 in 10.0 mi Calm Calm - N/A   Clear
6:15 AM 61.9 °F - 60.3 °F 94% 30.07 in 10.0 mi Calm Calm - N/A   Clear
6:35 AM 61.0 °F - 60.1 °F 97% 30.07 in 10.0 mi Calm Calm - N/A   Clear
6:55 AM 62.1 °F - 60.8 °F 96% 30.07 in 10.0 mi Calm Calm - N/A   Clear
6:56 AM 62.1 °F - 60.6 °F 95% 30.07 in 10.0 mi Calm Calm - N/A   Clear
7:19 AM 63.5 °F - 61.3 °F 93% 30.06 in 10.0 mi ESE 3.5 mph - N/A   Clear
7:36 AM 64.6 °F - 62.6 °F 93% 30.07 in 10.0 mi Calm Calm - N/A   Clear
7:56 AM 66.4 °F - 62.8 °F 88% 30.06 in 10.0 mi SE 3.5 mph - N/A   Clear
8:15 AM 67.3 °F - 63.5 °F 88% 30.06 in 10.0 mi SE 3.5 mph - N/A   Clear
8:16 AM 67.3 °F - 63.5 °F 88% 30.06 in 10.0 mi SE 3.5 mph - N/A   Clear
8:35 AM 69.3 °F - 65.5 °F 88% 30.06 in 10.0 mi South 3.5 mph - N/A   Clear
8:57 AM 71.4 °F - 65.3 °F 81% 30.05 in 10.0 mi SSE 5.8 mph - N/A   Clear
9:15 AM 73.2 °F - 66.0 °F 78% 30.05 in 10.0 mi SSE 5.8 mph - N/A   Clear
9:35 AM 75.4 °F - 66.7 °F 74% 30.05 in 10.0 mi South 5.8 mph - N/A   Clear
9:36 AM 75.4 °F - 66.7 °F 74% 30.05 in 10.0 mi South 4.6 mph - N/A   Clear
9:55 AM 76.5 °F - 66.2 °F 70% 30.05 in 10.0 mi SSW 6.9 mph - N/A   Clear
9:56 AM 76.5 °F - 66.2 °F 70% 30.05 in 10.0 mi SSW 6.9 mph - N/A   Clear
10:19 AM 77.4 °F - 66.4 °F 69% 30.05 in 10.0 mi South 10.4 mph - N/A   Clear
10:36 AM 77.9 °F - 67.1 °F 69% 30.05 in 10.0 mi SSW 6.9 mph - N/A   Clear
10:56 AM 78.1 °F - 66.7 °F 68% 30.05 in 10.0 mi SSW 9.2 mph - N/A   Clear
11:15 AM 79.2 °F - 66.7 °F 66% 30.04 in 10.0 mi SSW 11.5 mph - N/A   Clear
11:16 AM 79.2 °F - 66.6 °F 65% 30.04 in 10.0 mi SSW 11.5 mph - N/A   Clear
11:35 AM 80.1 °F 82.6 °F 67.6 °F 66% 30.04 in 10.0 mi SSW 10.4 mph - N/A   Clear
11:39 AM 79.9 °F - 67.5 °F 66% 30.04 in 10.0 mi South 6.9 mph - N/A   Clear
11:57 AM 80.2 °F 82.2 °F 65.8 °F 61% 30.04 in 10.0 mi SW 9.2 mph - N/A   Scattered Clouds
12:15 PM 81.0 °F 83.0 °F 66.0 °F 60% 30.04 in 10.0 mi SSW 9.2 mph - N/A   Clear
12:35 PM 81.3 °F 83.8 °F 67.3 °F 62% 30.04 in 10.0 mi South 6.9 mph - N/A   Scattered Clouds
12:36 PM 81.3 °F 83.8 °F 67.3 °F 62% 30.04 in 10.0 mi South 9.2 mph - N/A   Scattered Clouds
12:55 PM 81.9 °F 84.2 °F 66.7 °F 60% 30.03 in 10.0 mi South 8.1 mph - N/A   Scattered Clouds
12:56 PM 81.9 °F 84.2 °F 66.7 °F 60% 30.03 in 10.0 mi South 10.4 mph - N/A   Scattered Clouds
1:18 PM 82.2 °F 84.7 °F 67.3 °F 60% 30.02 in 10.0 mi South 9.2 mph - N/A   Mostly Cloudy
1:36 PM 82.8 °F 85.3 °F 67.3 °F 59% 30.03 in 10.0 mi South 9.2 mph - N/A   Mostly Cloudy
1:55 PM 80.6 °F 82.7 °F 66.2 °F 61% 30.03 in 10.0 mi SSW 9.2 mph - N/A   Mostly Cloudy
1:56 PM 80.6 °F 82.7 °F 66.2 °F 61% 30.03 in 10.0 mi SSW 10.4 mph - N/A   Mostly Cloudy
2:15 PM 82.0 °F 84.7 °F 67.3 °F 61% 30.02 in 10.0 mi South 8.1 mph - N/A   Mostly Cloudy
2:16 PM 82.2 °F 84.9 °F 67.5 °F 61% 30.02 in 10.0 mi South 6.9 mph - N/A   Scattered Clouds
2:35 PM 82.6 °F 85.3 °F 67.5 °F 60% 30.03 in 10.0 mi SSW 8.1 mph - N/A   Scattered Clouds
2:40 PM 82.6 °F 85.3 °F 67.6 °F 60% 30.03 in 10.0 mi SW 10.4 mph - N/A   Scattered Clouds
2:58 PM 83.1 °F 85.9 °F 67.6 °F 59% 30.02 in 10.0 mi South 8.1 mph - N/A   Mostly Cloudy
3:16 PM 83.3 °F 86.2 °F 67.6 °F 59% 30.02 in 10.0 mi SSW 9.2 mph - N/A   Mostly Cloudy
3:36 PM 82.4 °F 85.2 °F 67.6 °F 61% 30.01 in 10.0 mi SSW 6.9 mph - N/A   Mostly Cloudy
3:55 PM 82.0 °F 84.5 °F 67.1 °F 60% 30.00 in 10.0 mi SSW 6.9 mph - N/A   Scattered Clouds
3:56 PM 82.0 °F 84.7 °F 67.5 °F 61% 30.00 in 10.0 mi South 8.1 mph - N/A   Scattered Clouds
4:18 PM 82.6 °F 85.5 °F 68.0 °F 61% 30.00 in 10.0 mi SW 9.2 mph - N/A   Clear
4:36 PM 83.1 °F 86.1 °F 68.0 °F 60% 30.00 in 10.0 mi SSW 9.2 mph - N/A   Scattered Clouds
4:55 PM 82.4 °F 85.2 °F 67.6 °F 61% 30.00 in 10.0 mi SW 9.2 mph - N/A   Mostly Cloudy
4:56 PM 82.4 °F 85.0 °F 67.5 °F 60% 30.00 in 10.0 mi SW 8.1 mph - N/A   Mostly Cloudy
5:15 PM 81.5 °F 84.2 °F 67.6 °F 63% 29.99 in 10.0 mi South 6.9 mph - N/A   Scattered Clouds
5:35 PM 81.5 °F 84.2 °F 67.6 °F 63% 29.98 in 10.0 mi SSW 8.1 mph - N/A   Clear
5:36 PM 81.5 °F 84.2 °F 67.6 °F 63% 29.98 in 10.0 mi SSW 8.1 mph - N/A   Clear
5:55 PM 81.5 °F 84.6 °F 68.7 °F 65% 29.98 in 10.0 mi SSW 8.1 mph - N/A   Clear
6:17 PM 82.0 °F 84.9 °F 68.0 °F 62% 29.97 in 10.0 mi SSW 8.1 mph - N/A   Clear
6:35 PM 81.5 °F 84.4 °F 68.2 °F 64% 29.97 in 10.0 mi South 6.9 mph - N/A   Clear
6:55 PM 81.0 °F 83.8 °F 68.4 °F 65% 29.96 in 10.0 mi SSW 5.8 mph - N/A   Clear
6:56 PM 81.0 °F 83.9 °F 68.5 °F 66% 29.96 in 10.0 mi SSW 5.8 mph - N/A   Clear
7:15 PM 80.6 °F 83.4 °F 68.4 °F 66% 29.96 in 10.0 mi SSW 4.6 mph - N/A   Clear
7:39 PM 79.2 °F - 68.9 °F 71% 29.96 in 10.0 mi South 4.6 mph - N/A   Clear
7:58 PM 77.5 °F - 69.8 °F 77% 29.96 in 10.0 mi SSE 4.6 mph - N/A   Clear
8:15 PM 76.1 °F - 69.8 °F 81% 29.96 in 10.0 mi SSE 3.5 mph - N/A   Clear
8:35 PM 75.0 °F - 70.0 °F 84% 29.96 in 10.0 mi Calm Calm - N/A   Clear
8:36 PM 74.8 °F - 70.0 °F 85% 29.96 in 10.0 mi South 3.5 mph - N/A   Clear
8:55 PM 73.6 °F - 69.3 °F 86% 29.95 in 10.0 mi SSE 3.5 mph - N/A   Clear
8:56 PM 73.6 °F - 69.3 °F 86% 29.95 in 10.0 mi SSE 3.5 mph - N/A   Clear
9:15 PM 72.5 °F - 68.2 °F 86% 29.95 in 10.0 mi SE 3.5 mph - N/A   Clear
9:16 PM 72.5 °F - 68.2 °F 86% 29.95 in 10.0 mi SE 3.5 mph - N/A   Clear
9:35 PM 71.6 °F - 67.6 °F 87% 29.95 in 10.0 mi SE 4.6 mph - N/A   Clear
9:40 PM 71.8 °F - 67.6 °F 87% 29.95 in 10.0 mi SE 4.6 mph - N/A   Clear
9:57 PM 71.8 °F - 67.6 °F 87% 29.95 in 10.0 mi SSE 5.8 mph - N/A   Clear
10:15 PM 70.2 °F - 67.1 °F 90% 29.96 in 10.0 mi Calm Calm - N/A   Clear
10:35 PM 70.7 °F - 66.9 °F 88% 29.96 in 10.0 mi Calm Calm - N/A   Clear
10:36 PM 70.7 °F - 66.9 °F 88% 29.96 in 10.0 mi Calm Calm - N/A   Clear
10:55 PM 69.8 °F - 66.9 °F 91% 29.97 in 10.0 mi Calm Calm - N/A   Clear
10:56 PM 70.0 °F - 67.1 °F 91% 29.97 in 10.0 mi Calm Calm - N/A   Clear
11:15 PM 69.8 °F - 66.7 °F 90% 29.97 in 10.0 mi Calm Calm - N/A   Clear
11:16 PM 69.8 °F - 66.6 °F 89% 29.97 in 10.0 mi Calm Calm - N/A   Clear
11:38 PM 69.8 °F - 66.4 °F 89% 29.97 in 10.0 mi Calm Calm - N/A   Clear
11:56 PM 68.2 °F - 67.1 °F 96% 29.97 in 10.0 mi Calm Calm - N/A   Clear